This is the latest recevied weather packets stored in our database for station/object YB3RDW-13. If no packets are shown the sender has not sent any weather packets the latest 10 day(s).
| Time | Temp. | Humidity | Pressure | Rain* | Wind** | Luminosity | Snow |
|---|---|---|---|---|---|---|---|
| 1778219818 | 33.33° C | 58% | 1009 hPa | 0 mm | - | 606 W/m² | - |
| 1778219517 | 33.33° C | 56% | 1009 hPa | 0 mm | - | 615 W/m² | - |
| 1778219217 | 33.33° C | 59% | 1009 hPa | 0 mm | - | 621 W/m² | - |
| 1778218918 | 33.33° C | 58% | 1009 hPa | 0 mm | - | 623 W/m² | - |
| 1778218617 | 33.33° C | 59% | 1009 hPa | 0 mm | - | 625 W/m² | - |
| 1778218318 | 33.33° C | 59% | 1009 hPa | 0 mm | - | 623 W/m² | - |
| 1778218018 | 33.33° C | 58% | 1009 hPa | 0 mm | - | 644 W/m² | - |
| 1778217717 | 33.33° C | 57% | 1009 hPa | 0 mm | - | 652 W/m² | - |
| 1778217417 | 33.33° C | 59% | 1009 hPa | 0 mm | - | 651 W/m² | - |
| 1778217117 | 33.33° C | 59% | 1009 hPa | 0 mm | - | 656 W/m² | - |
| 1778216817 | 33.33° C | 58% | 1009 hPa | 0 mm | - | 669 W/m² | - |
| 1778216517 | 33.33° C | 59% | 1009 hPa | 0 mm | - | 666 W/m² | - |
| 1778216218 | 32.78° C | 60% | 1009 hPa | 0 mm | - | 664 W/m² | - |
| 1778215918 | 33.33° C | 59% | 1010 hPa | 0 mm | - | 670 W/m² | - |
| 1778215617 | 32.78° C | 60% | 1010 hPa | 0 mm | - | 674 W/m² | - |
| 1778215317 | 32.78° C | 59% | 1010 hPa | 0 mm | - | 651 W/m² | - |
| 1778215017 | 32.78° C | 59% | 1010 hPa | 0 mm | - | 674 W/m² | - |
| 1778214717 | 33.33° C | 59% | 1010 hPa | 0 mm | - | 678 W/m² | - |
| 1778214417 | 33.33° C | 58% | 1010 hPa | 0 mm | - | 670 W/m² | - |
| 1778214117 | 33.33° C | 58% | 1010 hPa | 0 mm | - | 673 W/m² | - |
| 1778213821 | 33.89° C | 57% | 1010 hPa | 0 mm | - | 682 W/m² | - |
| 1778213518 | 32.78° C | 59% | 1010 hPa | 0 mm | - | 663 W/m² | - |
| 1778213218 | 32.78° C | 58% | 1010 hPa | 0 mm | - | 669 W/m² | - |
| 1778212918 | 32.78° C | 58% | 1010 hPa | 0 mm | - | 681 W/m² | - |
| 1778212621 | 32.78° C | 58% | 1010 hPa | 0 mm | - | 648 W/m² | - |
* Rain latest hour (hover to see other rain measurements)
** Current wind speed in m/s (hover to see current wind gust speed)